Home > Weather > Almere > Past weeks

Flag for Netherlands Weather for the Past 2 Weeks in Almere, Netherlands

Now
63 °F

Sunny.


Feels Like: 63 °F
Forecast: 43 / 54 °F
Wind: 15 mph from Southwest

Location: Amsterdam Schiphol Airport

Current Time: May 2, 2016 at 3:34:51 PM

Latest Report: May 2, 2016 at 2:55 PM


Visibility: 10 mi

Pressure: 30.15 "Hg

Humidity: 34%

Dew Point: 34 °F

Location of AlmereLocation

Historic Weather in Almere — Graph

°F

Almere Temperature Yesterday

Maximum temperature yesterday: 57 °F (at 5:55 PM)
Minimum temperature yesterday: 36 °F (at 2:25 AM)
Average temperature yesterday: 47 °F

High & Low Weather Summary for the Past Weeks

 TemperatureHumidityPressure
High61 °F (May 2, 12:55 PM)100% (Apr 28, 5:25 AM)30.48 "Hg (Apr 28, 5:25 AM)
Low34 °F (Apr 25, 3:25 AM)39% (May 2, 1:55 PM)29.42 "Hg (Apr 26, 5:55 AM)
Average45 °F73%30.03 "Hg
* Reported Apr 17 2:25 PM — May 2 2:25 PM, Almere, Weather by CustomWeather, © 2016

Note: Actual official high and low records may vary slightly from our data, if they occured in-between our weather recording intervals... More about our weather records

Advertising

Almere Weather History for the Previous 24 Hours

Scroll right to see more
 ConditionsComfort  
Time TempWeatherWind HumidityBarometerVisibility
2:25 PM
Mon, May 2
61 °FPassing clouds.14 mph39%30.18 "HgN/A
1:55 PM61 °FSunny.16 mph39%30.18 "Hg10 mi
1:25 PM61 °FPassing clouds.14 mph42%30.18 "HgN/A
12:55 PM61 °FPassing clouds.14 mph42%30.21 "HgN/A
12:25 PM59 °FPassing clouds.15 mph42%30.21 "HgN/A
11:55 AM59 °FPassing clouds.13 mph45%30.21 "HgN/A
11:25 AM57 °FPassing clouds.14 mph48%30.21 "HgN/A
10:55 AM57 °FSunny.15 mph48%30.24 "Hg10 mi
10:25 AM55 °FPassing clouds.13 mph55%30.24 "HgN/A
9:55 AM54 °FSunny.12 mph54%30.24 "Hg10 mi
9:25 AM52 °FPassing clouds.8 mph58%30.24 "HgN/A
8:55 AM50 °FSunny.7 mph58%30.24 "Hg10 mi
8:25 AM48 °FPassing clouds.8 mph62%30.27 "HgN/A
6:55 AM39 °FClear.6 mph87%30.27 "Hg10 mi
6:25 AM39 °FClear.5 mph87%30.27 "Hg10 mi
5:55 AM39 °FPassing clouds.6 mph87%30.27 "HgN/A
5:25 AM39 °FClear.5 mph87%30.30 "Hg10 mi
4:55 AM39 °FClear.5 mph87%30.30 "Hg10 mi
3:55 AM37 °FClear.3 mph87%30.30 "Hg10 mi
3:25 AM36 °FClear.3 mph87%30.30 "Hg10 mi
2:55 AM39 °FClear.1 mph81%30.33 "Hg10 mi
2:25 AM39 °FFog.3 mph81%30.33 "HgN/A
1:55 AM37 °FClear.1 mph87%30.33 "Hg10 mi
12:55 AM39 °FClear.1 mph87%30.33 "Hg10 mi
12:25 AM43 °FClear.1 mph76%30.33 "Hg10 mi
11:55 PM
Sun, May 1
43 °FClear.No wind71%30.33 "Hg10 mi
11:25 PM45 °FClear.3 mph61%30.36 "Hg10 mi
10:55 PM45 °FClear.1 mph61%30.36 "Hg10 mi
10:25 PM46 °FClear.3 mph57%30.36 "Hg10 mi
9:55 PM43 °FSunny.6 mph66%30.36 "Hg10 mi
9:25 PM46 °FSunny.7 mph62%30.36 "Hg10 mi
8:55 PM48 °FSunny.7 mph62%30.36 "Hg10 mi
8:25 PM54 °FSunny.1 mph47%30.33 "Hg10 mi
7:55 PM54 °FPassing clouds.6 mph58%30.33 "HgN/A
7:25 PM54 °FPassing clouds.7 mph58%30.33 "HgN/A
6:55 PM55 °FPassing clouds.6 mph51%30.33 "HgN/A
6:25 PM55 °FPassing clouds.8 mph55%30.33 "HgN/A
5:55 PM57 °FPassing clouds.3 mph55%30.33 "HgN/A
5:25 PM55 °FPassing clouds.6 mph55%30.33 "HgN/A
4:55 PM55 °FPassing clouds.5 mph59%30.33 "HgN/A
4:25 PM55 °FPassing clouds.6 mph59%30.33 "HgN/A
3:55 PM55 °FPassing clouds.8 mph59%30.33 "HgN/A
3:25 PM55 °FPassing clouds.8 mph59%30.33 "HgN/A
Weather by CustomWeather, © 2016

See weather overviewHow to use our weather pages